Total_Precipitation_Accumulation
1.41 1.33 1.33 1.30 1.25 1.24 1.29 1.45 1.73 1.58 1.08 0.83 0.86 0.91 1.00 1.11 1.14 1.05 1.01 1.21 1.29 1.32 1.43 1.53 1.64 1.81 2.13 2.67 3.31 4.24 4.89 4.58 3.77 3.19 3.13 3.49 3.96 4.44
1.52 1.50 1.37 1.29 1.31 1.34 1.38 1.38 1.45 1.60 1.33 0.81 0.72 0.80 0.96 1.16 1.27 1.07 1.04 1.21 1.26 1.29 1.30 1.34 1.50 1.67 1.88 2.17 2.58 3.17 4.10 4.63 4.45 3.92 3.51 3.62 3.89 4.32
1.51 1.55 1.44 1.33 1.43 1.46 1.51 1.52 1.46 1.50 1.54 1.00 0.79 0.86 1.09 1.24 1.32 1.19 1.16 1.15 1.15 1.25 1.29 1.32 1.38 1.57 1.75 1.94 2.15 2.51 3.17 3.93 4.43 4.49 4.18 3.92 3.94 4.02
1.52 1.54 1.53 1.44 1.44 1.46 1.54 1.54 1.47 1.40 1.51 1.32 1.03 1.03 1.17 1.30 1.34 1.31 1.29 1.24 1.12 1.20 1.25 1.36 1.38 1.51 1.71 1.83 1.94 2.15 2.52 3.05 3.65 4.15 4.32 4.02 3.88 3.90
1.46 1.51 1.55 1.54 1.46 1.40 1.48 1.52 1.46 1.42 1.46 1.49 1.25 1.12 1.20 1.36 1.50 1.53 1.46 1.44 1.30 1.27 1.26 1.34 1.47 1.50 1.63 1.76 1.88 2.00 2.13 2.31 2.71 3.37 4.01 4.08 3.88 3.86
1.37 1.38 1.46 1.59 1.61 1.59 1.59 1.55 1.58 1.66 1.64 1.63 1.47 1.31 1.33 1.44 1.61 1.70 1.72 1.65 1.56 1.39 1.40 1.43 1.52 1.61 1.60 1.62 1.63 1.70 1.84 2.13 2.48 2.94 3.42 3.81 3.85 3.80
1.33 1.25 1.33 1.60 1.81 1.97 2.01 1.84 1.86 2.02 1.98 1.94 1.80 1.60 1.47 1.53 1.67 1.66 1.76 1.71 1.70 1.59 1.49 1.47 1.43 1.44 1.47 1.50 1.54 1.56 1.65 1.86 2.15 2.47 2.87 3.24 3.52 3.69
1.39 1.25 1.27 1.54 1.73 1.90 2.04 2.00 2.00 2.17 2.29 2.24 2.08 1.80 1.46 1.35 1.44 1.66 1.91 2.10 2.09 1.78 1.60 1.61 1.41 1.43 1.42 1.35 1.50 1.59 1.63 1.78 1.99 2.20 2.46 2.75 3.07 3.43
1.31 1.27 1.30 1.39 1.55 1.58 1.75 1.81 1.79 1.94 2.16 2.26 2.24 1.80 1.55 1.45 1.68 1.95 1.99 2.10 2.00 1.91 1.91 1.99 1.65 1.53 1.44 1.45 1.59 1.57 1.65 1.74 1.87 2.02 2.22 2.41 2.65 3.00
1.38 1.29 1.23 1.26 1.40 1.59 1.70 1.69 1.59 1.63 1.84 2.01 2.20 1.99 1.77 1.79 2.13 2.44 2.55 2.53 2.25 2.09 2.05 2.31 1.94 1.68 1.55 1.52 1.59 1.51 1.53 1.61 1.71 1.81 1.96 2.16 2.34 2.62
1.44 1.35 1.22 1.17 1.40 1.60 1.56 1.54 1.46 1.48 1.61 1.82 1.98 2.05 2.07 2.21 2.53 2.96 3.16 3.16 2.86 2.48 2.21 2.27 2.15 1.97 1.94 1.92 1.83 1.71 1.53 1.48 1.54 1.62 1.71 1.84 2.04 2.38
1.45 1.39 1.45 1.41 1.52 1.54 1.43 1.51 1.63 1.50 1.41 1.45 1.51 1.57 1.61 1.76 2.20 2.65 3.04 3.20 2.97 2.86 2.44 2.25 2.23 2.28 2.71 2.50 2.10 1.78 1.61 1.56 1.51 1.51 1.54 1.57 1.72 1.84
1.48 1.46 1.40 1.57 1.58 1.53 1.49 1.46 1.65 1.56 1.44 1.51 1.49 1.43 1.42 1.53 1.71 2.05 2.58 3.01 3.06 2.82 2.44 2.51 2.64 2.33 2.56 2.65 2.35 1.94 1.60 1.49 1.42 1.47 1.48 1.49 1.50 1.53
1.48 1.37 1.33 1.52 1.56 1.58 1.53 1.58 1.64 1.60 1.50 1.54 1.47 1.38 1.38 1.48 1.63 1.82 2.10 2.43 2.60 2.54 2.32 2.51 2.95 2.59 2.37 2.25 2.22 2.13 1.78 1.56 1.41 1.36 1.36 1.58 1.64 1.64
1.62 1.64 1.57 1.65 1.65 1.53 1.51 1.56 1.50 1.41 1.48 1.54 1.45 1.28 1.23 1.35 1.46 1.59 1.71 1.91 2.12 2.20 2.24 2.33 2.62 2.63 2.51 2.31 1.96 1.82 1.83 1.85 1.59 1.43 1.37 1.39 1.42 1.46
1.75 1.73 1.71 1.73 1.68 1.60 1.53 1.41 1.29 1.31 1.41 1.43 1.35 1.24 1.15 1.21 1.35 1.46 1.58 1.69 1.98 2.15 2.19 2.30 2.55 2.81 2.77 2.19 1.92 1.73 1.56 1.87 1.82 1.55 1.43 1.39 1.33 1.24
1.81 1.85 1.78 1.73 1.71 1.57 1.38 1.23 1.19 1.27 1.33 1.25 1.25 1.27 1.24 1.24 1.25 1.30 1.49 1.61 1.84 1.97 2.13 2.38 2.62 2.75 2.83 2.58 2.28 1.82 1.52 1.53 1.60 1.52 1.46 1.52 1.54 1.39
1.87 1.84 1.65 1.46 1.40 1.33 1.25 1.18 1.15 1.16 1.15 1.18 1.24 1.24 1.23 1.24 1.25 1.24 1.36 1.54 1.70 1.78 1.89 2.12 2.47 2.77 2.94 2.98 2.56 1.96 1.60 1.54 1.63 1.59 1.47 1.52 1.69 1.61
1.64 1.48 1.36 1.28 1.24 1.18 1.13 1.10 1.10 1.05 1.06 1.14 1.20 1.20 1.17 1.21 1.25 1.27 1.32 1.44 1.58 1.70 1.82 1.94 2.20 2.58 2.79 2.94 2.95 2.31 1.83 1.66 1.72 1.87 1.73 1.52 1.55 1.63
1.32 1.30 1.27 1.23 1.24 1.26 1.20 1.15 1.10 1.07 1.10 1.11 1.13 1.14 1.16 1.23 1.26 1.23 1.26 1.39 1.50 1.61 1.75 1.88 2.11 2.40 2.60 2.55 2.66 2.62 2.35 1.95 1.78 1.96 1.95 1.73 1.65 1.78
1.20 1.22 1.22 1.24 1.27 1.29 1.22 1.17 1.14 1.10 1.05 1.06 1.04 1.04 1.07 1.17 1.20 1.15 1.20 1.33 1.43 1.53 1.66 1.78 1.94 2.14 2.30 2.34 2.34 2.34 2.49 2.46 2.02 1.90 1.94 1.95 1.90 1.90
1.18 1.21 1.21 1.24 1.29 1.31 1.26 1.19 1.16 1.11 1.05 1.03 1.00 0.98 1.00 1.09 1.15 1.14 1.19 1.27 1.31 1.40 1.53 1.66 1.76 1.95 2.17 2.37 2.34 2.21 2.34 2.51 2.47 2.19 1.99 1.89 1.95 2.04
1.27 1.28 1.28 1.26 1.25 1.26 1.25 1.19 1.14 1.09 1.04 1.03 1.00 0.98 1.01 1.07 1.08 1.13 1.17 1.19 1.23 1.28 1.39 1.59 1.76 1.91 2.11 2.25 2.31 2.18 2.13 2.24 2.28 2.28 2.37 2.09 1.68 1.53